Time,TemperatureF,DewpointF,PressureIn,WindDirection,WindDirectionDegrees,WindSpeedMPH,WindSpeedGustMPH,Humidity,HourlyPrecipIn,Conditions,Clouds,dailyrainin,SolarRadiationWatts/m^2,SoftwareType,DateUTC
2013-09-28 00:00:00,56.0,53.0,-100.00,ESE,112,2.0,-999.0,88,-99.99,,,-99.99,0.000000,,2013-09-28 05:00:00,
2013-09-28 00:43:00,56.0,53.0,-100.00,ESE,112,2.0,-999.0,88,-99.99,,,-99.99,0.000000,,2013-09-28 05:43:00,
2013-09-28 00:53:00,56.0,53.0,-100.00,ESE,112,2.0,-999.0,88,-99.99,,,-99.99,0.000000,,2013-09-28 05:53:00,
2013-09-28 01:00:00,56.0,53.0,-100.00,SE,135,2.0,-999.0,91,-99.99,,,-99.99,0.000000,,2013-09-28 06:00:00,
2013-09-28 01:42:00,56.0,53.0,-100.00,SE,135,2.0,-999.0,91,-99.99,,,-99.99,0.000000,,2013-09-28 06:42:00,
2013-09-28 01:52:00,56.0,53.0,-100.00,SE,135,2.0,-999.0,91,-99.99,,,-99.99,0.000000,,2013-09-28 06:52:00,
2013-09-28 02:00:00,57.0,55.0,-100.00,SE,135,2.0,-999.0,91,-99.99,,,-99.99,0.000000,,2013-09-28 07:00:00,
2013-09-28 02:42:00,57.0,55.0,-100.00,SE,135,2.0,-999.0,91,-99.99,,,-99.99,0.000000,,2013-09-28 07:42:00,
2013-09-28 02:52:00,57.0,55.0,-100.00,SE,135,2.0,-999.0,91,-99.99,,,-99.99,0.000000,,2013-09-28 07:52:00,
2013-09-28 03:00:00,59.0,56.0,-100.00,SSE,157,3.0,-999.0,89,-99.99,,,-99.99,0.000000,,2013-09-28 08:00:00,
2013-09-28 03:43:00,59.0,56.0,-100.00,SSE,157,3.0,-999.0,89,-99.99,,,-99.99,0.000000,,2013-09-28 08:43:00,
2013-09-28 03:53:00,59.0,56.0,-100.00,SSE,157,3.0,-999.0,89,-99.99,,,-99.99,0.000000,,2013-09-28 08:53:00,
2013-09-28 04:00:00,60.0,56.0,-100.00,South,180,4.0,-999.0,88,-99.99,,,-99.99,0.000000,,2013-09-28 09:00:00,
2013-09-28 04:43:00,60.0,56.0,-100.00,South,180,4.0,-999.0,88,-99.99,,,-99.99,0.000000,,2013-09-28 09:43:00,
2013-09-28 04:54:00,60.0,56.0,-100.00,South,180,4.0,-999.0,88,-99.99,,,-99.99,0.000000,,2013-09-28 09:54:00,
2013-09-28 05:00:00,60.0,56.0,-100.00,South,180,5.0,-999.0,88,-99.99,,,-99.99,0.000000,,2013-09-28 10:00:00,
2013-09-28 05:43:00,60.0,56.0,-100.00,South,180,5.0,-999.0,88,-99.99,,,-99.99,0.000000,,2013-09-28 10:43:00,
2013-09-28 05:52:00,60.0,56.0,-100.00,South,180,5.0,-999.0,88,-99.99,,,-99.99,0.000000,,2013-09-28 10:52:00,
2013-09-28 06:00:00,60.0,56.0,-100.00,South,180,5.0,-999.0,86,-99.99,,,-99.99,0.000000,,2013-09-28 11:00:00,
2013-09-28 06:43:00,60.0,56.0,-100.00,South,180,5.0,-999.0,86,-99.99,,,-99.99,0.000000,,2013-09-28 11:43:00,
2013-09-28 06:52:00,60.0,56.0,-100.00,South,180,5.0,-999.0,86,-99.99,,,-99.99,0.000000,,2013-09-28 11:52:00,
2013-09-28 07:00:00,59.0,55.0,-100.00,SSE,157,5.0,-999.0,85,-99.99,,,-99.99,3.480000,,2013-09-28 12:00:00,
2013-09-28 07:42:00,59.0,55.0,-100.00,SSE,157,5.0,-999.0,85,-99.99,,,-99.99,3.480000,,2013-09-28 12:42:00,
2013-09-28 07:52:00,59.0,55.0,-100.00,SSE,157,5.0,-999.0,85,-99.99,,,-99.99,3.480000,,2013-09-28 12:52:00,
2013-09-28 08:00:00,60.0,53.0,-100.00,SSE,157,5.0,-999.0,77,-99.99,,,-99.99,95.120003,,2013-09-28 13:00:00,
2013-09-28 08:42:00,60.0,53.0,-100.00,SSE,157,5.0,-999.0,77,-99.99,,,-99.99,95.120003,,2013-09-28 13:42:00,
2013-09-28 08:52:00,60.0,53.0,-100.00,SSE,157,5.0,-999.0,77,-99.99,,,-99.99,95.120003,,2013-09-28 13:52:00,
2013-09-28 09:00:00,62.0,54.0,-100.00,SSE,157,6.0,-999.0,75,-99.99,,,-99.99,257.519989,,2013-09-28 14:00:00,
2013-09-28 09:42:00,62.0,54.0,-100.00,SSE,157,6.0,-999.0,75,-99.99,,,-99.99,257.519989,,2013-09-28 14:42:00,
2013-09-28 09:52:00,62.0,54.0,-100.00,SSE,157,6.0,-999.0,75,-99.99,,,-99.99,257.519989,,2013-09-28 14:52:00,
2013-09-28 10:00:00,64.0,57.0,-100.00,South,180,7.0,-999.0,76,-99.99,,,-99.99,399.040009,,2013-09-28 15:00:00,
2013-09-28 10:44:00,64.0,57.0,-100.00,South,180,7.0,-999.0,76,-99.99,,,-99.99,399.040009,,2013-09-28 15:44:00,
2013-09-28 10:54:00,64.0,57.0,-100.00,South,180,7.0,-999.0,76,-99.99,,,-99.99,399.040009,,2013-09-28 15:54:00,
2013-09-28 11:00:00,64.0,57.0,-100.00,South,180,9.0,-999.0,78,-99.99,,,-99.99,402.519989,,2013-09-28 16:00:00,
2013-09-28 11:43:00,64.0,57.0,-100.00,South,180,9.0,-999.0,78,-99.99,,,-99.99,402.519989,,2013-09-28 16:43:00,
2013-09-28 11:54:00,64.0,57.0,-100.00,South,180,9.0,-999.0,78,-99.99,,,-99.99,402.519989,,2013-09-28 16:54:00,
2013-09-28 12:00:00,64.0,58.0,-100.00,South,180,8.0,-999.0,80,-99.99,,,-99.99,419.920013,,2013-09-28 17:00:00,
2013-09-28 12:43:00,64.0,58.0,-100.00,South,180,8.0,-999.0,80,-99.99,,,-99.99,419.920013,,2013-09-28 17:43:00,
2013-09-28 12:52:00,64.0,58.0,-100.00,South,180,8.0,-999.0,80,-99.99,,,-99.99,419.920013,,2013-09-28 17:52:00,
2013-09-28 13:00:00,66.0,59.0,-100.00,South,180,9.0,-999.0,76,-99.99,,,-99.99,595.080017,,2013-09-28 18:00:00,
2013-09-28 13:42:00,66.0,59.0,-100.00,South,180,9.0,-999.0,76,-99.99,,,-99.99,595.080017,,2013-09-28 18:42:00,
2013-09-28 13:52:00,66.0,59.0,-100.00,South,180,9.0,-999.0,76,-99.99,,,-99.99,595.080017,,2013-09-28 18:52:00,
2013-09-28 14:00:00,68.0,59.0,-100.00,SSE,157,9.0,-999.0,73,-99.99,,,-99.99,613.640015,,2013-09-28 19:00:00,
2013-09-28 14:42:00,68.0,59.0,-100.00,SSE,157,9.0,-999.0,73,-99.99,,,-99.99,613.640015,,2013-09-28 19:42:00,
2013-09-28 14:52:00,68.0,59.0,-100.00,SSE,157,9.0,-999.0,73,-99.99,,,-99.99,613.640015,,2013-09-28 19:52:00,
2013-09-28 16:00:00,68.0,57.0,-100.00,SSE,157,9.0,-999.0,68,-99.99,,,-99.99,452.399994,,2013-09-28 21:00:00,
2013-09-28 16:44:00,68.0,57.0,-100.00,SSE,157,9.0,-999.0,68,-99.99,,,-99.99,452.399994,,2013-09-28 21:44:00,
2013-09-28 16:55:00,68.0,57.0,-100.00,SSE,157,9.0,-999.0,68,-99.99,,,-99.99,452.399994,,2013-09-28 21:55:00,
2013-09-28 17:00:00,68.0,56.0,-100.00,South,180,13.0,-999.0,65,-99.99,,,-99.99,313.200012,,2013-09-28 22:00:00,
2013-09-28 17:43:00,68.0,56.0,-100.00,South,180,13.0,-999.0,65,-99.99,,,-99.99,313.200012,,2013-09-28 22:43:00,
2013-09-28 17:54:00,68.0,56.0,-100.00,South,180,13.0,-999.0,65,-99.99,,,-99.99,313.200012,,2013-09-28 22:54:00,
2013-09-28 18:00:00,67.0,56.0,-100.00,South,180,9.0,-999.0,69,-99.99,,,-99.99,71.919998,,2013-09-28 23:00:00,
2013-09-28 18:43:00,67.0,56.0,-100.00,South,180,9.0,-999.0,69,-99.99,,,-99.99,71.919998,,2013-09-28 23:43:00,
2013-09-28 18:53:00,67.0,56.0,-100.00,South,180,9.0,-999.0,69,-99.99,,,-99.99,71.919998,,2013-09-28 23:53:00,
2013-09-28 19:00:00,66.0,56.0,-100.00,South,180,9.0,-999.0,68,-99.99,,,-99.99,3.480000,,2013-09-29 00:00:00,
2013-09-28 19:43:00,66.0,56.0,-100.00,South,180,9.0,-999.0,68,-99.99,,,-99.99,3.480000,,2013-09-29 00:43:00,
2013-09-28 19:52:00,66.0,56.0,-100.00,South,180,9.0,-999.0,68,-99.99,,,-99.99,3.480000,,2013-09-29 00:52:00,
2013-09-28 20:00:00,68.0,55.0,-100.00,South,180,11.0,-999.0,64,-99.99,,,-99.99,0.000000,,2013-09-29 01:00:00,
2013-09-28 20:43:00,68.0,55.0,-100.00,South,180,11.0,-999.0,64,-99.99,,,-99.99,0.000000,,2013-09-29 01:43:00,
2013-09-28 20:52:00,68.0,55.0,-100.00,South,180,11.0,-999.0,64,-99.99,,,-99.99,0.000000,,2013-09-29 01:52:00,
2013-09-28 21:00:00,67.0,56.0,-100.00,SSW,202,11.0,-999.0,69,-99.99,,,-99.99,0.000000,,2013-09-29 02:00:00,
2013-09-28 21:43:00,67.0,56.0,-100.00,SSW,202,11.0,-999.0,69,-99.99,,,-99.99,0.000000,,2013-09-29 02:43:00,
2013-09-28 21:53:00,67.0,56.0,-100.00,SSW,202,11.0,-999.0,69,-99.99,,,-99.99,0.000000,,2013-09-29 02:53:00,
2013-09-28 22:00:00,-999.0,-99.9,-100.00,WSW,247,8.0,-999.0,-999,-99.99,,,-99.99,,,2013-09-29 03:00:00,
2013-09-28 22:44:00,63.0,59.0,-100.00,WSW,247,8.0,-999.0,88,0.10,,,-99.99,0.000000,,2013-09-29 03:44:00,
2013-09-28 22:55:00,63.0,59.0,-100.00,WSW,247,8.0,-999.0,88,0.10,,,-99.99,0.000000,,2013-09-29 03:55:00,
2013-09-28 23:00:00,59.0,57.0,-100.00,West,270,8.0,-999.0,93,0.12,,,-99.99,0.000000,,2013-09-29 04:00:00,
2013-09-28 23:44:00,59.0,57.0,-100.00,West,270,8.0,-999.0,93,0.12,,,-99.99,0.000000,,2013-09-29 04:44:00,
2013-09-28 23:54:00,59.0,57.0,-100.00,West,270,8.0,-999.0,93,0.12,,,-99.99,0.000000,,2013-09-29 04:54:00,